Retour au catalogue

USA 184

ActifMilitaireHEO
NORAD 29249·PAYLOAD·🇺🇸 United States

Lancé Jun 28, 2006 depuis Vandenberg Space Force Base

Loading…

Prochains Passages (prochaines 24 heures)

TLE

FraisSource: Mike McCants

Époque: Sep 14, 2026, 16:54 UTC

1 29249U 06027A   26257.70485767  .00000237  00000-0  00000-0 0    02
2 29249  63.4950 229.1563 6803418 273.1219  17.3758  2.00618127  5618

Suivez USA 184 en temps réel avec AllMySat

Download on the App Store